Printer-friendly version

IAU Minor Planet Center

Minor Planet Center

MPEC 2006-B79 : 2006 BF56

The following Minor Planet Electronic Circular may be linked-to from your own Web pages, but must not otherwise be redistributed electronically.


Read MPEC 2006-B78 Read MPEC 2006-B80


M.P.E.C. 2006-B79                                Issued 2006 Jan. 28, 23:09 UT

     The Minor Planet Electronic Circulars contain information on unusual
         minor planets and routine data on comets.  They are published
   on behalf of Commission 20 of the International Astronomical Union by the
          Minor Planet Center, Smithsonian Astrophysical Observatory,
                          Cambridge, MA 02138, U.S.A.

                  Supported in part by the Brinson Foundation
                  Supported in part by the TABASGO Foundation
             Prepared using the Tamkin Foundation Computer Network

                              MPC@CFA.HARVARD.EDU
          URL http://cfa-www.harvard.edu/iau/mpc.html  ISSN 1523-6714

                                   2006 BF56

Observations:
     K06B56F* C2006 01 28.30727 09 12 17.92 +19 37 22.2          20.8 V EB079G96
     K06B56F  C2006 01 28.31337 09 12 19.65 +19 38 45.5          20.4 V EB079G96
     K06B56F  C2006 01 28.31946 09 12 21.38 +19 40 08.5          22.0 V EB079G96
     K06B56F  C2006 01 28.32556 09 12 23.07 +19 41 34.0          20.6 V EB079G96
     K06B56F  C2006 01 28.47957 09 13 17.32 +20 21 36.0          20.2 V EB079G96
     K06B56F  C2006 01 28.48088 09 13 17.90 +20 21 59.4          20.2 V EB079G96
     K06B56F  C2006 01 28.48219 09 13 18.55 +20 22 22.1          21.0 V EB079G96
     K06B56F  C2006 01 28.48349 09 13 19.16 +20 22 45.3          21.8 V EB079G96
     K06B56F  C2006 01 28.51426 09 13 34.96 +20 32 06.0          22.0 V EB079G96
     K06B56F  C2006 01 28.51462 09 13 35.20 +20 32 14.1          20.4 V EB079G96
     K06B56F  C2006 01 28.92381509 23 28.03 +24 28 53.7                 EB079J95
     K06B56F tC2006 01 28.92579 09 23 21.54 +24 32 26.4                 EB079246
     K06B56F tC2006 01 28.92604 09 23 21.99 +24 32 46.7                 EB079246
     K06B56F tC2006 01 28.92763 09 23 25.38 +24 34 27.5                 EB079246
     K06B56F tC2006 01 28.92845 09 23 27.03 +24 35 17.8                 EB079246
     K06B56F  C2006 01 28.92878209 23 38.80 +24 34 09.8          19.7 R EB079J95
     K06B56F  C2006 01 28.93752609 23 58.50 +24 43 42.3          19.2 R EB079J95

Observer details:
246 Klet Observatory-KLENOT.  Observers J. Ticha, M. Tichy.  Measurer M. Tichy.
    1.06-m KLENOT Telescope + CCD.
G96 Mt. Lemmon Survey.  Observer E. J. Christensen.  Measurers E. C. Beshore,
    E. J. Christensen, G. J. Garradd, A. D. Grauer, R. E. Hill, R. A. Kowalski,
    S. M. Larson, R. H. McNaught.  1.5-m reflector + CCD.
J95 Great Shefford.  Observers P. Birtwhistle, A. Taylor, C. Sawyer, M. Morgan.
    0.40-m f/6.0 Schmidt-Cassegrain + CCD.

Orbital elements:
2006 BF56                                                Earth MOID = 0.0013 AU
Epoch 2006 Mar. 6.0 TT = JDT 2453800.5                  MPC
M 357.79575              (2000.0)            P               Q
n   0.27078401     Peri.  103.06719     -0.67286086     +0.73964001
a   2.3662141      Node   124.63580     -0.68506602     -0.61594776
e   0.7950009      Incl.    0.96225     -0.27918239     -0.27118446
P   3.64           H   29.5           G   0.15           U   6
Residuals in seconds of arc
060128 G96  0.6-  0.5-    060128 G96  0.0   0.2+    060128 246  0.4-  1.1+
060128 G96  0.2+  0.3-    060128 G96  0.1-  0.4+    060128 246  0.4+  0.8+
060128 G96  0.9+  1.0-    060128 G96  0.5-  0.3-    060128 246  0.7-  1.3-
060128 G96  0.7+  0.1+    060128 G96  0.1+  1.1+    060128 J95  1.0-  0.6-
060128 G96  0.1+  0.3+    060128 J95  0.1-  0.5-    060128 J95  1.4+  1.3+
060128 G96  0.4-  0.6+    060128 246  0.6+  3.3-

Ephemeris:
2006 BF56                a,e,i = 2.37, 0.80, 1                   q = 0.4851
Date    TT    R. A. (2000) Decl.     Delta      r     Elong.  Phase     V
2006 01 28.0  09 10.34   +18 44.9    0.0212   1.006   173.0     6.8    21.7
2006 01 28.1  09 10.85   +18 59.9    0.0197   1.004   173.0     6.9    21.5
2006 01 28.2  09 11.44   +19 17.2    0.0183   1.003   172.9     7.0    21.3
2006 01 28.3  09 12.14   +19 37.6    0.0168   1.002   172.8     7.1    21.2
2006 01 28.4  09 12.97   +20 01.8    0.0153   1.000   172.6     7.3    21.0
2006 01 28.5  09 13.99   +20 31.1    0.0139   0.999   172.3     7.6    20.7
2006 01 28.6  09 15.25   +21 07.3    0.0124   0.997   172.0     7.9    20.5
2006 01 28.7  09 16.87   +21 53.1    0.0109   0.996   171.4     8.5    20.3
2006 01 28.8  09 19.01   +22 52.9    0.00949  0.994   170.6     9.3    20.0
2006 01 28.9  09 21.97   +24 14.2    0.00804  0.993   169.4    10.6    19.7
2006 01 29.0  09 26.34   +26 10.5    0.00659  0.991   167.5    12.4    19.3
2006 01 29.1  09 33.39   +29 09.1    0.00517  0.990   164.4    15.5    18.9
2006 01 29.2  09 46.92   +34 21.3    0.00377  0.989   158.7    21.2    18.4
2006 01 29.3  10 22.22   +44 59.0    0.00246  0.987   146.4    33.5    17.8
2006 01 29.4  13 41.20   +65 08.3    0.00148  0.986   113.1    66.8    17.7
2006 01 29.5  19 20.15   +35 31.3    0.00164  0.984    57.3   122.6    20.6
2006 01 29.6  20 13.81   +11 41.0    0.00273  0.983    30.7   149.2    24.9
2006 01 29.7  20 31.24   +02 11.9    0.00407  0.981    20.5   159.4    28.3
2006 01 29.8  20 39.76   -02 31.5    0.00548  0.980    15.5   164.5    31.0
2006 01 29.9  20 44.80   -05 18.3    0.00691  0.978    12.5   167.4    33.3
2006 01 30.0  20 48.12   -07 07.5    0.00836  0.977    10.7   169.3

Kyle E. Smalley              (C) Copyright 2006 MPC           M.P.E.C. 2006-B79

Read MPEC 2006-B78 Read MPEC 2006-B80


Our Web policy. Index to the CBAT/MPC/ICQ pages.


Valid HTML 4.01!